Date,TemperatureHighF,TemperatureAvgF,TemperatureLowF,DewpointHighF,DewpointAvgF,DewpointLowF,HumidityHigh,HumidityAvg,HumidityLow,PressureMaxIn,PressureMinIn,WindSpeedMaxMPH,WindSpeedAvgMPH,GustSpeedMaxMPH,PrecipitationSumIn
2013-1-1,42.6,37.7,34.2,38.2,35.1,32.0,93,91,82,29.96,29.32,6,2,19,0.01
2013-1-2,50.4,44.6,37.9,49.0,42.9,35.1,96,93,88,30.08,29.96,12,4,20,0.19
2013-1-3,50.7,49.5,47.5,48.9,47.0,44.4,94,91,88,30.42,30.07,11,2,21,0.00
2013-1-4,50.4,47.6,44.8,47.9,45.2,42.3,95,91,87,30.49,30.42,10,3,20,0.00
2013-1-5,48.7,45.6,40.8,46.4,43.2,38.9,96,91,85,30.47,30.31,20,5,28,0.01
2013-1-6,48.9,44.9,40.5,45.9,41.7,36.8,94,88,79,30.47,30.22,12,5,18,0.00
2013-1-7,49.3,47.7,46.2,47.3,45.3,43.2,95,91,87,30.21,30.03,10,5,16,0.22
2013-1-8,51.3,46.1,39.4,48.8,43.8,37.5,96,92,86,30.17,29.98,16,4,25,0.02
2013-1-9,44.8,39.3,36.9,41.1,37.4,35.4,96,93,87,30.18,30.08,8,2,14,0.01
2013-1-10,39.6,37.4,35.1,38.8,36.5,33.8,98,96,95,30.08,29.98,7,1,8,0.05
2013-1-11,38.8,36.4,33.8,37.3,34.8,32.1,98,94,92,30.06,30.00,7,2,12,0.01
2013-1-12,36.3,34.3,29.8,33.9,31.9,28.2,95,91,87,30.17,29.97,9,4,15,0.00
2013-1-13,35.2,32.9,30.9,33.1,30.6,29.0,95,91,85,30.18,30.01,10,4,17,0.00
2013-1-14,36.0,34.0,32.2,33.8,31.8,29.5,96,92,86,30.01,29.77,7,2,12,0.03
2013-1-15,35.8,29.1,20.5,33.1,27.3,18.8,96,93,88,29.96,29.86,4,1,7,0.01
2013-1-16,29.7,26.8,21.7,26.0,23.7,19.7,95,88,82,30.02,29.89,7,4,12,0.00
2013-1-17,33.3,29.7,28.4,27.0,24.4,22.1,89,81,71,30.05,29.85,15,8,30,0.00
2013-1-18,31.3,29.7,27.7,28.9,25.6,21.9,96,85,77,29.85,29.62,14,9,25,0.00
2013-1-19,34.0,31.0,25.9,30.6,28.4,23.2,96,90,82,29.78,29.63,8,4,17,0.02
2013-1-20,31.6,30.6,29.5,28.9,26.9,24.9,94,86,78,29.76,29.58,5,2,11,0.00
2013-1-21,31.8,31.3,30.6,30.9,29.7,27.1,97,94,83,29.58,29.52,11,5,24,0.00
2013-1-22,33.6,32.3,30.6,31.6,30.2,28.0,97,92,87,29.89,29.56,11,4,23,0.04
2013-1-23,34.2,32.2,28.6,30.8,29.5,25.6,93,90,85,30.01,29.89,7,2,12,0.02
2013-1-24,33.6,31.9,29.8,30.7,29.1,26.7,96,89,79,30.12,30.01,11,4,17,0.01
2013-1-25,33.6,32.4,30.6,31.5,29.2,26.4,94,88,80,30.01,29.43,16,11,27,0.01
2013-1-26,41.0,36.3,33.3,39.2,33.8,30.8,96,91,79,29.62,29.03,18,6,30,0.09
2013-1-27,46.9,39.6,36.0,43.8,36.4,31.6,97,88,81,29.23,28.82,20,8,31,0.05
2013-1-28,45.0,40.0,36.0,40.8,35.8,31.8,92,85,76,29.39,28.94,23,13,38,0.12
2013-1-29,51.1,44.2,41.7,48.2,40.3,35.7,94,86,77,29.38,28.99,22,8,36,0.15
2013-1-30,42.1,39.6,37.6,37.9,36.2,34.9,94,88,78,29.69,29.16,16,5,30,0.20
2013-1-31,42.1,39.1,36.0,38.9,36.4,34.0,96,90,81,29.71,29.26,17,6,29,0.29